SCP
0 0 0 0 0 0 0 0 0 0 -0 -0 -0 0 0 0 0 0 0 0 0 0 -0 0 -0 0 0 0 0 0 0 0 0 0 0 -0 0 0 0 -0 -0 -0 -0 -0
0 0 0 0 0 0 0 0 0 0 0 0 -0 0 0 0 0 0 -0 -0 0 0 0 0 0 0 0 0 0 0 0 0 0 0 0 0 -0 -0 -0 -0 -0 -0 -0 -0
0 0 0 0 0 0 0 0 0 0 0 0 0 0 0 0 0 0 0 0 -0 0 0 0 0 0 0 0 0 0 0 1 1 0 0 0 -0 -0 -0 -0 -0 -0 -0 -0
0 0 0 0 0 0 0 0 0 0 0 -0 0 0 0 1 0 0 0 0 0 0 0 0 0 0 0 0 0 0 1 1 1 0 0 -0 -0 -0 -0 0 -0 -0 -0 -0
0 0 0 0 0 0 0 0 0 0 0 0 0 0 0 0 1 1 2 2 0 0 0 0 0 1 1 1 0 1 1 0 1 0 0 0 -0 -0 -0 -0 -0 -0 -0 -0
0 0 0 0 0 0 0 0 0 0 0 0 0 0 0 0 0 0 0 1 3 4 2 1 0 0 1 0 1 1 1 1 1 2 1 1 0 0 0 0 0 1 0 0
0 0 0 0 0 0 0 0 0 0 0 0 0 0 0 0 0 0 0 0 1 3 3 3 1 0 0 1 2 2 2 2 2 2 2 2 2 2 2 1 1 1 0 1
0 0 0 0 0 0 0 0 0 0 0 0 0 0 0 0 0 0 0 0 0 0 2 2 3 3 3 2 1 1 1 1 2 3 3 3 3 4 3 3 2 2 1 1
0 0 0 0 0 0 0 0 0 0 0 0 0 0 0 0 0 0 0 0 0 0 0 1 2 5 5 5 1 2 2 1 1 2 2 3 4 4 5 4 4 4 3 2
0 0 0 0 0 0 0 0 0 0 0 0 0 0 0 0 0 0 0 0 0 0 0 0 1 2 4 4 4 3 2 2 2 2 2 3 5 5 6 6 5 5 5 4
0 0 0 0 0 0 0 0 0 0 0 0 0 0 0 0 0 0 0 0 0 0 0 0 0 1 3 4 3 3 3 2 2 2 2 3 4 5 7 6 6 7 6 6
0 0 0 0 0 0 0 0 0 0 0 0 0 0 0 0 0 0 0 0 0 0 0 0 0 1 1 3 2 2 2 2 3 3 3 3 0 0 0 0 0 0 0 3
-0 0 0 0 0 0 0 0 0 0 0 0 0 0 0 0 0 0 0 0 0 0 0 0 0 0 0 1 2 1 1 1 2 2 4 2 0 0 0 0 0 0 0 0
0 0 -0 -0 0 0 0 -0 0 0 -0 -0 0 0 0 0 -0 -0 0 0 0 0 0 0 0 0 0 0 1 1 1 1 1 1 2 3 1 1 0 0 1 0 0 0
0 0 0 0 0 0 0 -0 -0 -0 -0 -0 0 0 0 0 -0 -0 -0 -0 0 0 0 0 0 0 0 0 0 0 1 1 1 2 2 3 3 1 1 0 0 0 0 0
-0 0 0 0 0 0 0 0 -0 -0 -0 -0 -0 0 0 0 -0 -0 -0 -0 -0 -0 -0 -0 0 0 0 0 -0 -0 -0 -0 0 1 3 3 3 2 1 0 0 0 0 0
-0 -0 -0 -0 0 0 0 0 0 -0 -0 -0 0 0 0 0 -0 -0 -0 -0 -0 -0 -0 -0 -0 -0 -0 -0 -0 -1 -1 -1 -0 0 2 4 4 3 1 0 0 0 0 0
0 -0 -0 -0 0 0 0 0 -0 0 0 0 0 0 0 -0 -0 -0 -0 -0 -0 -0 -0 -0 -0 -0 -0 -0 -0 -1 -1 -1 -0 1 2 3 3 2 1 0 0 0 0 0
-0 -0 -0 0 -0 -0 0 0 0 0 0 0 0 0 0 -0 -0 -0 -0 -0 -0 -0 -0 -0 -0 -0 -0 -0 -1 -1 -0 0 0 1 1 0 0 0 0 0 0 0 0 0
-0 -0 0 -0 -0 -0 -0 -0 0 0 0 0 0 0 0 0 0 0 0 -0 0 0 0 0 0 0 0 -0 0 1 0 0 0 0 0 0 0 0 0 0 0 0 0 0
-0 -0 -0 -0 -0 0 -0 -0 0 0 0 0 0 0 0 0 0 0 0 0 0 0 0 0 0 0 0 0 0 0 0 0 0 0 0 0 0 0 0 0 0 0 0 0
-0 -0 -0 -0 -0 -0 0 -0 -0 -0 -0 0 0 0 0 0 0 0 0 0 0 0 0 0 0 0 0 0 0 0 0 0 0 0 0 0 0 0 0 0 0 0 0 0
-0 -0 -0 -0 -0 -0 -0 0 0 -0 -0 -0 -0 -0 0 0 0 0 0 0 0 0 0 0 0 0 0 0 0 0 0 0 0 0 0 0 0 0 0 0 0 0 0 0
-0 -0 -0 -0 -0 -0 0 0 0 -0 -0 -0 -0 0 0 0 0 0 0 0 0 0 0 0 0 0 0 0 0 0 0 0 0 0 0 0 0 0 0 0 0 0 0 0
0 0 -0 -0 -0 -0 -0 -0 -0 -0 -0 -0 -0 -0 -0 -0 -0 0 0 0 0 0 0 0 0 0 0 0 0 0 0 0 0 0 0 0 0 0 0 0 0 0 0 0
-0 -0 0 0 -0 -0 -0 -0 -0 -0 -0 0 0 0 -0 -0 -0 -0 -0 0 0 0 0 0 0 0 0 0 0 0 0 0 0 0 0 0 0 0 0 0 0 0 0 0
0 0 0 0 0 -0 -0 -0 -0 -0 -0 -0 0 0 -0 -0 -0 -0 -0 -0 -0 -0 0 0 0 0 0 0 0 0 0 0 0 0 0 -0 -0 -0 0 0 0 0 0 0
Wind_Speed_500mb
39 47 48 48 44 40 28 29 25 21 19 17 20 21 19 36 61 75 86 103 105 107 107 112 113 118 117 112 108 104 96 90 82 76 78 76 75 73 72 74 76 76 77 79
43 40 36 37 36 25 21 33 16 14 16 17 21 25 11 27 47 57 81 103 107 108 110 114 118 118 118 111 105 102 100 93 84 81 79 80 78 77 74 73 72 74 75 79
13 15 19 4 29 20 7 22 14 32 21 5 6 18 30 28 66 49 57 80 96 108 114 118 118 114 112 109 104 100 94 88 88 86 86 82 78 79 78 74 72 74 74 78
12 17 13 18 38 24 36 40 41 29 23 18 33 53 71 67 59 75 75 56 49 66 70 79 89 98 105 99 96 94 93 87 83 83 80 75 74 73 67 70 73 71 71 73
7 7 5 34 37 28 11 28 42 38 16 37 57 84 62 63 61 66 75 73 72 65 43 71 71 81 88 85 89 86 89 91 83 83 80 78 78 74 67 67 68 66 68 69
16 7 5 19 50 62 11 32 38 48 42 35 21 27 9 45 58 61 60 64 64 62 61 59 41 42 69 73 79 84 85 89 85 84 84 84 79 77 72 74 75 73 73 72
17 11 8 41 52 43 19 18 49 45 39 50 30 15 31 54 60 60 59 56 53 50 49 44 39 39 33 49 72 80 84 87 89 87 83 76 79 83 84 84 82 82 79 77
7 6 5 58 25 13 10 36 47 54 54 43 43 44 49 52 56 53 53 54 51 50 43 34 29 27 28 26 16 9 26 73 79 81 79 74 74 76 79 81 82 83 83 81
6 7 9 31 15 35 31 36 45 55 60 59 41 37 39 44 46 47 48 48 45 44 38 31 23 16 12 6 6 7 11 17 35 45 54 62 63 65 69 72 78 82 83 83
20 7 30 59 48 38 30 51 56 58 54 53 66 32 30 42 43 41 44 46 40 38 38 33 25 18 10 5 5 9 14 21 25 34 43 49 58 63 64 69 73 77 82 84
13 10 60 8 18 39 65 77 84 70 54 41 46 34 41 41 43 43 43 44 45 41 38 32 21 12 9 8 7 6 17 25 29 36 40 46 55 62 66 65 69 72 73 76
14 49 40 60 76 75 66 74 77 64 60 43 34 31 35 40 39 42 41 38 38 37 33 32 23 13 8 12 16 18 23 31 37 40 46 52 54 67 69 68 71 71 66 65
34 60 67 70 64 57 61 53 43 58 58 56 47 28 29 34 30 26 35 35 32 36 37 38 33 19 13 18 22 26 37 44 45 43 44 49 52 63 71 68 69 67 58 54
66 64 31 31 43 58 51 43 44 55 60 50 46 36 20 20 24 26 29 32 37 38 39 38 38 33 23 24 30 36 44 43 48 49 43 46 54 59 63 62 59 59 60 53
74 61 47 45 43 48 43 42 40 49 49 51 46 45 37 33 26 26 30 38 45 47 49 47 43 43 32 27 31 33 39 46 42 47 49 52 57 64 63 57 55 55 51 53
67 70 70 68 60 60 60 49 46 37 34 39 35 44 45 41 37 40 44 49 52 56 49 48 54 57 46 32 33 38 39 42 47 43 46 52 61 66 63 62 59 55 48 43
62 70 77 81 75 72 58 38 36 43 31 30 32 28 32 40 44 55 62 69 69 66 60 53 57 55 48 35 37 40 40 39 50 50 44 49 65 65 63 64 62 52 43 38
64 65 68 77 77 71 64 35 22 31 35 29 22 33 32 32 37 46 59 66 68 63 57 59 62 60 49 44 44 38 34 35 45 45 43 46 54 64 67 61 55 48 41 35
61 74 60 61 78 77 75 65 52 21 20 14 16 19 24 29 35 39 46 41 36 37 43 54 60 60 57 45 40 44 39 41 44 42 40 44 47 51 52 46 41 34 27 25
44 58 73 52 59 67 77 78 78 72 56 39 22 16 16 11 8 13 11 15 15 16 19 36 42 54 58 56 53 55 48 51 51 54 61 65 66 54 51 47 38 32 29 27
41 42 58 67 58 63 64 68 81 89 82 70 62 58 62 60 50 37 20 28 35 30 8 12 24 25 27 46 61 62 57 68 63 65 54 64 69 66 55 46 42 41 41 36
27 38 41 46 59 69 61 61 64 66 73 81 82 78 69 65 75 73 72 64 59 64 51 45 42 36 46 50 65 71 75 74 73 68 68 57 51 51 49 45 37 38 37 31
27 21 32 36 40 47 59 67 69 66 64 64 68 68 69 65 67 66 77 65 65 81 77 78 58 72 75 76 72 73 73 71 77 75 73 68 60 55 50 40 40 41 41 37
24 31 30 24 33 26 37 50 63 64 62 60 64 61 61 62 56 58 57 51 57 67 76 69 77 87 85 88 82 78 68 71 79 72 76 73 65 58 56 48 42 40 39 37
26 24 23 25 27 36 31 30 41 46 49 54 46 36 46 52 57 46 45 49 54 54 57 59 62 66 72 81 84 91 80 73 67 74 65 68 63 58 53 49 44 40 38 36
32 26 38 25 22 32 25 27 32 31 34 32 35 36 40 40 34 28 35 31 49 51 51 52 56 57 64 62 59 53 51 57 65 63 63 56 69 64 55 52 51 42 44 41
32 29 29 31 23 21 26 23 34 31 33 29 33 34 33 36 28 28 37 42 55 53 39 37 44 47 59 59 55 45 40 42 34 40 43 44 55 47 36 42 40 35 35 35
Wind_Direction_500mb
269 275 274 265 265 271 210 205 192 217 209 241 255 272 257 182 174 167 179 185 187 190 193 199 204 211 217 220 221 222 224 225 226 227 231 235 238 239 237 239 241 240 238 236
289 265 239 243 250 241 252 206 145 192 241 226 254 272 82 137 138 163 174 180 184 189 191 198 205 213 216 219 221 222 224 226 228 229 231 233 236 240 242 242 241 241 239 239
265 304 288 188 352 11 291 184 156 218 222 122 97 2 7 93 101 130 165 181 184 189 193 201 207 210 215 219 218 221 225 228 230 232 234 236 238 240 241 243 244 243 243 243
267 302 165 119 28 37 63 34 17 356 334 109 107 74 51 51 73 89 107 134 170 191 192 199 205 210 216 214 218 221 226 228 231 234 236 237 238 240 242 243 246 248 246 246
261 285 249 21 3 346 14 38 12 1 100 116 110 73 40 51 67 78 88 93 96 100 146 200 201 214 220 216 219 223 227 229 233 236 238 239 240 242 244 244 247 250 254 254
311 300 28 0 338 334 132 37 12 16 23 22 22 82 10 46 64 67 82 95 98 103 104 104 106 198 216 223 228 230 234 238 237 239 243 243 245 247 249 249 251 254 256 260
292 257 91 355 353 7 60 17 360 11 23 39 54 56 54 65 64 64 65 75 90 105 104 97 102 96 101 211 226 235 237 240 244 244 246 253 255 253 251 251 253 254 257 260
310 3 68 350 8 59 287 347 360 356 3 33 52 43 42 50 50 53 58 65 71 84 91 96 105 109 104 110 126 183 238 244 247 248 250 251 253 255 254 252 252 254 255 259
340 275 43 341 348 295 309 347 353 355 349 3 22 32 20 28 34 35 41 46 54 63 77 88 94 109 111 79 203 215 234 227 235 240 244 250 254 254 253 253 252 253 254 257
323 79 344 319 310 292 302 331 325 328 340 8 10 8 20 16 13 15 23 26 31 44 56 60 77 91 92 31 305 263 273 269 263 249 244 247 250 252 254 253 251 251 255 256
286 287 323 334 320 312 305 307 305 311 317 340 7 40 15 9 2 356 2 8 9 13 20 25 40 67 63 51 21 305 270 271 273 272 264 250 246 249 251 254 256 256 256 259
309 310 287 281 297 303 298 296 297 305 305 311 338 346 343 343 345 341 339 342 347 345 347 356 3 17 12 345 332 310 290 283 279 274 273 263 251 245 246 250 254 254 257 260
306 304 299 293 294 294 288 299 294 292 289 285 287 314 337 316 323 326 324 326 333 334 333 333 329 330 329 327 320 306 299 278 273 270 268 259 252 246 243 247 252 253 251 255
331 331 321 321 303 305 301 312 313 291 283 277 266 268 299 317 306 311 321 324 326 316 315 319 319 317 324 320 308 305 300 293 271 264 260 261 255 253 252 249 251 255 250 244
352 355 351 357 325 313 306 303 288 281 281 262 250 251 257 275 284 295 310 320 317 312 308 309 311 307 316 318 296 291 301 302 291 269 255 255 253 252 251 246 245 248 250 244
358 7 8 7 360 351 333 306 304 297 274 258 260 254 253 254 266 283 295 303 311 314 305 304 300 302 305 302 283 281 284 292 289 280 258 251 246 246 244 239 235 239 242 244
3 1 5 5 0 358 354 321 315 319 290 278 253 253 254 258 264 271 280 291 304 309 306 297 291 291 290 274 264 267 269 277 279 276 269 254 243 243 238 234 226 228 229 225
17 16 18 15 8 6 14 21 340 314 300 298 265 265 275 284 289 290 292 298 305 301 303 298 290 284 279 271 258 256 253 260 255 260 253 249 236 235 226 220 211 206 202 207
19 23 19 22 24 21 25 37 40 352 317 320 276 277 293 302 304 305 303 306 305 310 302 289 283 276 268 256 246 250 235 236 239 213 212 207 196 188 176 175 172 172 179 198
21 25 28 32 34 35 33 39 51 58 63 68 67 51 44 34 49 331 338 37 20 352 314 289 271 262 258 246 235 219 222 215 207 184 169 165 170 161 157 160 161 162 158 158
18 29 36 38 34 33 40 45 47 50 57 62 63 63 59 65 80 81 98 72 54 55 53 260 230 222 204 222 221 209 210 198 177 176 169 152 147 150 151 148 149 150 147 156
3 25 35 38 38 38 42 44 46 49 54 58 62 61 55 60 65 72 74 74 64 65 66 63 63 87 111 133 163 178 170 169 164 156 156 152 154 149 147 143 147 155 161 169
8 357 30 30 37 47 46 43 46 51 55 53 52 53 50 53 54 45 57 60 60 69 69 68 69 67 87 97 106 125 149 149 145 148 147 146 150 144 139 140 141 138 141 140
36 31 28 33 25 24 38 41 37 42 45 46 52 52 51 47 45 53 63 62 61 60 67 64 63 68 72 76 83 91 83 107 118 122 126 129 127 126 126 133 135 129 127 127
46 48 33 30 39 39 37 41 35 43 42 47 45 26 31 41 43 36 48 50 54 60 60 56 55 60 66 62 64 65 64 63 75 80 88 100 101 98 99 104 105 108 109 107
39 37 42 46 48 35 46 48 49 51 46 43 49 50 58 53 36 54 44 63 60 55 55 60 62 66 69 67 62 60 61 62 60 65 65 63 80 81 84 90 92 92 94 95
44 31 37 41 46 39 34 53 45 59 66 57 62 54 55 62 54 41 51 58 49 49 51 63 61 70 73 75 79 82 78 68 65 59 63 60 62 64 69 73 71 61 59 60
Wind_Speed_850mb
39 47 48 48 44 40 28 29 25 21 19 17 20 21 19 36 61 75 86 103 105 107 107 112 113 118 117 112 108 104 96 90 82 76 78 76 75 73 72 74 76 76 77 79
43 40 36 37 36 25 21 33 16 14 16 17 21 25 11 27 47 57 81 103 107 108 110 114 118 118 118 111 105 102 100 93 84 81 79 80 78 77 74 73 72 74 75 79
13 15 19 4 29 20 7 22 14 32 21 5 6 18 30 28 66 49 57 80 96 108 114 118 118 114 112 109 104 100 94 88 88 86 86 82 78 79 78 74 72 74 74 78
12 17 13 18 38 24 36 40 41 29 23 18 33 53 71 67 59 75 75 56 49 66 70 79 89 98 105 99 96 94 93 87 83 83 80 75 74 73 67 70 73 71 71 73
7 7 5 34 37 28 11 28 42 38 16 37 57 84 62 63 61 66 75 73 72 65 43 71 71 81 88 85 89 86 89 91 83 83 80 78 78 74 67 67 68 66 68 69
16 7 5 19 50 62 11 32 38 48 42 35 21 27 9 45 58 61 60 64 64 62 61 59 41 42 69 73 79 84 85 89 85 84 84 84 79 77 72 74 75 73 73 72
17 11 8 41 52 43 19 18 49 45 39 50 30 15 31 54 60 60 59 56 53 50 49 44 39 39 33 49 72 80 84 87 89 87 83 76 79 83 84 84 82 82 79 77
7 6 5 58 25 13 10 36 47 54 54 43 43 44 49 52 56 53 53 54 51 50 43 34 29 27 28 26 16 9 26 73 79 81 79 74 74 76 79 81 82 83 83 81
6 7 9 31 15 35 31 36 45 55 60 59 41 37 39 44 46 47 48 48 45 44 38 31 23 16 12 6 6 7 11 17 35 45 54 62 63 65 69 72 78 82 83 83
20 7 30 59 48 38 30 51 56 58 54 53 66 32 30 42 43 41 44 46 40 38 38 33 25 18 10 5 5 9 14 21 25 34 43 49 58 63 64 69 73 77 82 84
13 10 60 8 18 39 65 77 84 70 54 41 46 34 41 41 43 43 43 44 45 41 38 32 21 12 9 8 7 6 17 25 29 36 40 46 55 62 66 65 69 72 73 76
14 49 40 60 76 75 66 74 77 64 60 43 34 31 35 40 39 42 41 38 38 37 33 32 23 13 8 12 16 18 23 31 37 40 46 52 54 67 69 68 71 71 66 65
34 60 67 70 64 57 61 53 43 58 58 56 47 28 29 34 30 26 35 35 32 36 37 38 33 19 13 18 22 26 37 44 45 43 44 49 52 63 71 68 69 67 58 54
66 64 31 31 43 58 51 43 44 55 60 50 46 36 20 20 24 26 29 32 37 38 39 38 38 33 23 24 30 36 44 43 48 49 43 46 54 59 63 62 59 59 60 53
74 61 47 45 43 48 43 42 40 49 49 51 46 45 37 33 26 26 30 38 45 47 49 47 43 43 32 27 31 33 39 46 42 47 49 52 57 64 63 57 55 55 51 53
67 70 70 68 60 60 60 49 46 37 34 39 35 44 45 41 37 40 44 49 52 56 49 48 54 57 46 32 33 38 39 42 47 43 46 52 61 66 63 62 59 55 48 43
62 70 77 81 75 72 58 38 36 43 31 30 32 28 32 40 44 55 62 69 69 66 60 53 57 55 48 35 37 40 40 39 50 50 44 49 65 65 63 64 62 52 43 38
64 65 68 77 77 71 64 35 22 31 35 29 22 33 32 32 37 46 59 66 68 63 57 59 62 60 49 44 44 38 34 35 45 45 43 46 54 64 67 61 55 48 41 35
61 74 60 61 78 77 75 65 52 21 20 14 16 19 24 29 35 39 46 41 36 37 43 54 60 60 57 45 40 44 39 41 44 42 40 44 47 51 52 46 41 34 27 25
44 58 73 52 59 67 77 78 78 72 56 39 22 16 16 11 8 13 11 15 15 16 19 36 42 54 58 56 53 55 48 51 51 54 61 65 66 54 51 47 38 32 29 27
41 42 58 67 58 63 64 68 81 89 82 70 62 58 62 60 50 37 20 28 35 30 8 12 24 25 27 46 61 62 57 68 63 65 54 64 69 66 55 46 42 41 41 36
27 38 41 46 59 69 61 61 64 66 73 81 82 78 69 65 75 73 72 64 59 64 51 45 42 36 46 50 65 71 75 74 73 68 68 57 51 51 49 45 37 38 37 31
27 21 32 36 40 47 59 67 69 66 64 64 68 68 69 65 67 66 77 65 65 81 77 78 58 72 75 76 72 73 73 71 77 75 73 68 60 55 50 40 40 41 41 37
24 31 30 24 33 26 37 50 63 64 62 60 64 61 61 62 56 58 57 51 57 67 76 69 77 87 85 88 82 78 68 71 79 72 76 73 65 58 56 48 42 40 39 37
26 24 23 25 27 36 31 30 41 46 49 54 46 36 46 52 57 46 45 49 54 54 57 59 62 66 72 81 84 91 80 73 67 74 65 68 63 58 53 49 44 40 38 36
32 26 38 25 22 32 25 27 32 31 34 32 35 36 40 40 34 28 35 31 49 51 51 52 56 57 64 62 59 53 51 57 65 63 63 56 69 64 55 52 51 42 44 41
32 29 29 31 23 21 26 23 34 31 33 29 33 34 33 36 28 28 37 42 55 53 39 37 44 47 59 59 55 45 40 42 34 40 43 44 55 47 36 42 40 35 35 35
Wind_Direction_850mb
269 275 274 265 265 271 210 205 192 217 209 241 255 272 257 182 174 167 179 185 187 190 193 199 204 211 217 220 221 222 224 225 226 227 231 235 238 239 237 239 241 240 238 236
289 265 239 243 250 241 252 206 145 192 241 226 254 272 82 137 138 163 174 180 184 189 191 198 205 213 216 219 221 222 224 226 228 229 231 233 236 240 242 242 241 241 239 239
265 304 288 188 352 11 291 184 156 218 222 122 97 2 7 93 101 130 165 181 184 189 193 201 207 210 215 219 218 221 225 228 230 232 234 236 238 240 241 243 244 243 243 243
267 302 165 119 28 37 63 34 17 356 334 109 107 74 51 51 73 89 107 134 170 191 192 199 205 210 216 214 218 221 226 228 231 234 236 237 238 240 242 243 246 248 246 246
261 285 249 21 3 346 14 38 12 1 100 116 110 73 40 51 67 78 88 93 96 100 146 200 201 214 220 216 219 223 227 229 233 236 238 239 240 242 244 244 247 250 254 254
311 300 28 0 338 334 132 37 12 16 23 22 22 82 10 46 64 67 82 95 98 103 104 104 106 198 216 223 228 230 234 238 237 239 243 243 245 247 249 249 251 254 256 260
292 257 91 355 353 7 60 17 360 11 23 39 54 56 54 65 64 64 65 75 90 105 104 97 102 96 101 211 226 235 237 240 244 244 246 253 255 253 251 251 253 254 257 260
310 3 68 350 8 59 287 347 360 356 3 33 52 43 42 50 50 53 58 65 71 84 91 96 105 109 104 110 126 183 238 244 247 248 250 251 253 255 254 252 252 254 255 259
340 275 43 341 348 295 309 347 353 355 349 3 22 32 20 28 34 35 41 46 54 63 77 88 94 109 111 79 203 215 234 227 235 240 244 250 254 254 253 253 252 253 254 257
323 79 344 319 310 292 302 331 325 328 340 8 10 8 20 16 13 15 23 26 31 44 56 60 77 91 92 31 305 263 273 269 263 249 244 247 250 252 254 253 251 251 255 256
286 287 323 334 320 312 305 307 305 311 317 340 7 40 15 9 2 356 2 8 9 13 20 25 40 67 63 51 21 305 270 271 273 272 264 250 246 249 251 254 256 256 256 259
309 310 287 281 297 303 298 296 297 305 305 311 338 346 343 343 345 341 339 342 347 345 347 356 3 17 12 345 332 310 290 283 279 274 273 263 251 245 246 250 254 254 257 260
306 304 299 293 294 294 288 299 294 292 289 285 287 314 337 316 323 326 324 326 333 334 333 333 329 330 329 327 320 306 299 278 273 270 268 259 252 246 243 247 252 253 251 255
331 331 321 321 303 305 301 312 313 291 283 277 266 268 299 317 306 311 321 324 326 316 315 319 319 317 324 320 308 305 300 293 271 264 260 261 255 253 252 249 251 255 250 244
352 355 351 357 325 313 306 303 288 281 281 262 250 251 257 275 284 295 310 320 317 312 308 309 311 307 316 318 296 291 301 302 291 269 255 255 253 252 251 246 245 248 250 244
358 7 8 7 360 351 333 306 304 297 274 258 260 254 253 254 266 283 295 303 311 314 305 304 300 302 305 302 283 281 284 292 289 280 258 251 246 246 244 239 235 239 242 244
3 1 5 5 0 358 354 321 315 319 290 278 253 253 254 258 264 271 280 291 304 309 306 297 291 291 290 274 264 267 269 277 279 276 269 254 243 243 238 234 226 228 229 225
17 16 18 15 8 6 14 21 340 314 300 298 265 265 275 284 289 290 292 298 305 301 303 298 290 284 279 271 258 256 253 260 255 260 253 249 236 235 226 220 211 206 202 207
19 23 19 22 24 21 25 37 40 352 317 320 276 277 293 302 304 305 303 306 305 310 302 289 283 276 268 256 246 250 235 236 239 213 212 207 196 188 176 175 172 172 179 198
21 25 28 32 34 35 33 39 51 58 63 68 67 51 44 34 49 331 338 37 20 352 314 289 271 262 258 246 235 219 222 215 207 184 169 165 170 161 157 160 161 162 158 158
18 29 36 38 34 33 40 45 47 50 57 62 63 63 59 65 80 81 98 72 54 55 53 260 230 222 204 222 221 209 210 198 177 176 169 152 147 150 151 148 149 150 147 156
3 25 35 38 38 38 42 44 46 49 54 58 62 61 55 60 65 72 74 74 64 65 66 63 63 87 111 133 163 178 170 169 164 156 156 152 154 149 147 143 147 155 161 169
8 357 30 30 37 47 46 43 46 51 55 53 52 53 50 53 54 45 57 60 60 69 69 68 69 67 87 97 106 125 149 149 145 148 147 146 150 144 139 140 141 138 141 140
36 31 28 33 25 24 38 41 37 42 45 46 52 52 51 47 45 53 63 62 61 60 67 64 63 68 72 76 83 91 83 107 118 122 126 129 127 126 126 133 135 129 127 127
46 48 33 30 39 39 37 41 35 43 42 47 45 26 31 41 43 36 48 50 54 60 60 56 55 60 66 62 64 65 64 63 75 80 88 100 101 98 99 104 105 108 109 107
39 37 42 46 48 35 46 48 49 51 46 43 49 50 58 53 36 54 44 63 60 55 55 60 62 66 69 67 62 60 61 62 60 65 65 63 80 81 84 90 92 92 94 95
44 31 37 41 46 39 34 53 45 59 66 57 62 54 55 62 54 41 51 58 49 49 51 63 61 70 73 75 79 82 78 68 65 59 63 60 62 64 69 73 71 61 59 60